Theta_e
329 329 329 329 330 330 330 331 331 331 332 332 333 333 333 333 333 333 332 332 332 332 332 332 332 333 332 331 331 331 332 332 330 330 330 330 331 331 331 332 333 332
327 328 329 329 329 330 329 330 330 330 331 332 332 332 332 332 333 333 333 332 332 333 333 333 333 332 331 331 331 331 332 331 331 330 330 330 330 330 331 332 333 332
325 327 328 329 330 330 330 330 330 330 330 331 331 332 332 332 332 333 333 333 332 332 333 333 333 331 330 331 331 331 331 331 331 331 331 331 330 330 332 332 333 331
322 324 326 328 329 329 330 330 330 330 329 330 330 331 332 332 332 332 333 333 332 332 332 333 332 331 331 331 331 331 331 331 331 331 331 332 332 331 332 331 331 331
320 321 323 326 328 329 329 329 330 330 329 330 330 331 332 332 332 331 332 332 331 331 332 333 332 331 331 331 331 332 332 332 332 332 332 333 332 332 331 331 330 331
317 319 321 323 327 328 329 329 329 329 329 330 330 330 331 332 331 331 331 331 331 331 332 332 333 332 331 331 331 332 332 332 332 332 332 332 332 332 332 331 331 332
316 317 318 321 324 326 329 329 329 329 329 329 330 330 331 331 331 331 330 331 330 331 332 332 333 333 331 331 331 331 332 332 332 332 332 332 332 332 332 331 332 332
315 315 316 318 321 324 327 328 328 328 328 328 329 329 330 331 331 330 330 330 331 331 332 332 332 332 331 331 331 331 332 332 332 333 332 332 332 332 332 332 332 332
314 314 314 316 318 321 324 326 327 328 328 328 328 328 329 329 330 331 330 330 331 331 330 330 331 332 331 332 332 332 332 332 332 333 332 332 332 332 332 331 332 332
313 313 313 314 316 318 321 324 326 327 328 327 326 327 328 328 329 330 330 330 331 331 330 330 331 332 332 332 332 332 332 332 332 332 332 332 332 331 332 331 332 332
312 312 312 312 313 315 318 322 325 327 327 326 325 324 325 327 328 329 330 330 330 329 329 330 331 332 332 332 332 332 332 332 332 332 332 332 332 331 331 331 332 332
311 311 311 311 312 313 315 319 324 326 326 325 324 323 324 326 328 329 329 329 329 329 328 329 331 332 332 332 332 332 332 332 332 332 332 331 332 331 331 331 331 331
310 310 311 311 311 312 314 317 322 325 325 324 324 324 325 327 327 328 329 329 329 329 329 330 332 333 333 332 332 332 331 331 332 331 331 331 332 332 331 331 331 331
309 310 310 310 310 310 312 314 318 323 324 324 324 324 325 326 326 327 328 329 329 330 329 330 330 331 332 332 332 331 331 331 332 331 331 331 331 331 331 331 331 331
309 309 310 310 309 309 310 311 314 319 322 323 324 324 324 324 325 327 327 328 329 329 328 328 328 329 332 332 331 331 330 330 331 331 331 331 330 330 330 330 330 331
308 308 309 309 309 308 308 308 310 314 318 320 322 324 323 323 324 325 326 327 329 329 328 328 327 329 331 331 330 330 329 330 330 330 330 330 330 330 330 329 330 330
308 308 308 308 308 308 308 307 307 309 312 315 318 320 321 322 323 324 325 326 327 328 328 328 329 330 331 330 329 329 330 330 330 329 329 329 329 329 329 329 329 330
307 308 308 307 307 307 307 306 306 306 307 309 312 314 316 318 319 320 322 324 325 325 326 326 327 329 330 330 329 328 329 329 330 330 329 329 329 329 329 329 329 330
307 307 307 307 307 306 306 306 305 305 305 306 307 308 311 312 313 315 317 318 319 321 322 323 323 324 326 328 328 328 328 328 329 329 330 329 330 330 329 329 329 330
307 307 307 307 306 306 306 305 305 304 304 305 305 305 306 308 309 310 311 312 314 316 318 319 320 321 322 325 327 328 328 327 327 328 329 329 330 330 330 330 330 330
306 306 306 306 306 306 305 305 305 304 304 304 304 304 304 305 306 307 308 309 310 311 313 313 314 317 319 322 324 325 326 326 326 327 328 328 329 330 330 330 330 330
305 305 306 306 305 305 305 305 305 304 303 303 303 303 303 303 303 304 304 305 307 308 310 310 310 312 315 318 320 322 323 323 324 326 327 327 328 329 329 330 329 329
305 305 305 305 305 305 305 305 304 304 304 303 303 303 302 302 302 302 302 303 303 304 306 308 308 310 312 314 316 318 319 320 322 324 326 326 327 327 327 328 328 329
304 304 304 304 305 305 304 304 304 304 304 303 303 303 302 301 301 301 301 301 301 301 302 304 305 307 309 312 314 315 317 318 320 323 324 325 325 325 324 324 325 327
303 303 303 304 304 304 304 304 304 304 304 303 303 303 302 302 301 301 300 300 300 300 300 301 302 304 306 309 311 313 314 314 317 321 323 322 321 321 320 318 319 323
302 303 303 303 303 303 304 304 303 303 303 303 303 303 303 302 302 301 301 300 300 300 299 299 299 300 302 305 307 310 311 310 312 315 317 318 317 318 317 315 314 317
Wind_Speed
11 11 12 13 13 14 15 16 16 16 15 13 13 13 14 14 15 16 16 15 15 16 16 15 14 15 15 14 12 11 11 13 15 15 14 14 15 16 17 17 15 14
13 13 13 14 14 14 14 14 14 14 14 13 13 13 14 14 14 15 14 14 15 16 17 15 15 15 15 14 13 13 13 14 17 17 17 17 18 18 18 16 15 15
14 14 14 15 15 15 15 16 15 14 13 13 14 14 13 13 14 14 13 13 15 17 17 16 15 16 16 14 14 14 14 15 17 18 18 19 19 17 16 15 15 17
16 16 16 16 16 15 15 16 17 16 14 14 14 13 12 12 12 13 13 14 16 18 18 17 17 16 15 15 15 14 13 13 14 16 16 17 17 16 16 16 16 15
18 17 17 17 16 15 15 16 16 16 14 12 13 13 12 11 12 13 14 15 17 18 18 18 18 17 16 16 16 14 13 14 14 15 16 15 15 15 16 16 14 14
19 19 18 18 17 16 16 16 16 15 14 12 13 13 13 12 12 14 15 15 17 19 20 19 19 18 18 17 16 15 15 15 15 16 16 15 15 15 15 15 14 15
18 19 19 18 18 17 16 17 17 16 14 13 14 14 13 13 14 15 16 16 18 20 20 20 20 19 18 17 16 16 15 15 16 16 16 15 14 15 15 15 14 15
17 18 19 19 18 17 17 17 17 17 15 15 15 15 14 14 15 16 17 17 18 20 21 20 20 18 18 17 16 15 15 15 15 16 16 16 15 15 15 14 14 15
17 17 19 20 19 17 17 17 18 17 16 16 16 16 16 17 16 16 18 18 18 20 21 20 19 18 17 17 16 15 15 15 15 16 16 16 16 15 15 14 14 15
18 18 19 20 20 19 18 18 18 17 15 17 17 16 17 18 17 16 17 17 17 19 19 18 17 17 17 16 15 14 15 15 15 15 15 15 15 15 14 14 14 15
20 18 19 21 21 21 20 20 18 16 15 16 16 15 16 16 15 16 17 18 17 18 18 17 17 17 16 16 15 15 15 15 14 14 14 14 14 14 14 14 14 14
21 20 20 21 21 22 21 20 18 16 15 15 13 14 15 14 14 16 18 19 19 18 19 19 18 17 16 15 15 15 15 15 14 13 14 14 14 14 14 14 14 14
21 21 21 21 22 22 21 20 18 15 14 13 12 11 11 12 14 15 17 18 18 18 18 18 16 15 15 15 14 14 14 14 14 13 13 14 14 14 14 14 14 15
22 21 21 21 22 21 21 20 19 16 13 11 10 8 7 8 10 11 13 14 13 12 13 14 15 14 14 14 14 13 13 13 13 13 13 13 14 14 14 14 14 15
22 21 21 21 22 22 22 23 21 17 12 9 8 7 7 7 8 8 10 11 9 9 12 17 18 16 14 14 14 13 13 13 13 13 13 13 13 13 14 15 14 14
22 22 22 22 22 23 23 24 23 20 15 12 9 7 8 9 7 8 11 11 9 9 12 16 17 14 13 15 15 13 13 13 13 13 13 13 13 13 14 15 14 14
23 22 23 22 22 23 23 23 24 22 19 17 14 10 8 8 7 7 9 11 10 10 12 13 12 11 13 15 16 15 13 12 12 13 13 13 14 14 14 15 14 13
23 23 23 23 23 23 23 23 23 22 21 21 20 17 12 9 7 6 6 8 10 11 11 11 6 5 8 12 14 15 15 13 12 13 13 13 14 14 14 14 13 13
24 24 24 24 24 23 23 22 22 22 21 20 19 18 16 13 11 9 6 6 8 9 9 10 8 8 9 11 14 16 16 15 13 12 12 13 13 13 13 13 13 13
23 24 24 24 24 24 23 23 23 22 20 19 17 17 17 16 15 13 10 8 6 6 7 8 7 11 12 12 14 16 17 17 15 12 12 13 13 13 13 12 13 13
23 23 24 24 24 24 24 23 23 22 20 19 18 18 17 16 15 14 13 12 10 7 6 7 6 9 11 12 14 16 17 18 17 14 13 13 13 13 13 12 13 13
23 23 24 24 24 24 24 24 23 23 21 19 18 17 18 17 16 15 14 14 15 12 9 8 9 9 10 12 14 16 17 17 17 16 15 13 13 13 13 12 12 12
22 23 24 24 24 24 24 23 23 22 21 21 19 18 18 18 17 17 17 16 16 16 14 12 12 12 11 10 11 13 15 15 15 17 16 13 13 13 12 11 12 13
21 22 23 23 24 24 23 23 22 22 21 21 20 19 19 18 17 17 18 18 17 17 17 14 12 13 13 11 9 9 12 12 12 16 15 11 10 11 10 9 14 17
21 21 21 22 22 22 22 22 21 21 21 20 19 19 19 19 18 18 17 18 18 18 19 18 16 15 14 12 11 9 10 9 9 11 11 10 9 10 9 7 11 18
21 21 20 21 22 21 21 22 21 21 20 20 19 19 19 18 19 19 18 18 18 18 19 22 22 19 16 14 11 10 9 8 7 5 5 5 6 7 7 7 7 13
Wind_Direction
316 306 299 293 285 280 275 271 269 264 258 252 247 244 243 237 226 222 220 219 216 207 201 198 198 200 202 203 202 200 199 202 212 221 226 230 231 231 232 232 231 231
326 316 307 297 288 281 277 274 270 264 258 254 248 244 245 242 230 221 216 217 216 207 201 200 196 197 198 198 199 199 199 201 207 213 221 227 227 229 231 231 232 233
331 324 315 307 298 291 284 278 272 265 259 256 251 245 243 241 237 228 217 215 214 206 202 202 199 198 199 198 200 202 201 203 207 210 216 223 222 222 225 226 230 233
335 329 322 313 305 298 291 283 276 269 260 254 249 244 238 236 237 232 222 217 214 208 206 206 203 201 200 197 197 202 206 210 214 214 216 221 220 218 223 227 229 234
336 332 327 318 307 300 293 287 282 275 266 255 249 243 237 235 235 231 225 219 215 211 209 207 204 201 200 198 197 201 209 214 218 219 219 220 219 219 225 228 228 231
335 332 329 322 313 304 295 289 285 280 271 260 252 246 240 237 234 230 225 219 214 211 209 205 202 202 201 200 200 203 209 216 218 219 219 219 219 220 222 223 224 227
334 333 332 328 321 312 301 293 288 282 274 264 256 249 241 236 232 229 225 219 212 209 208 205 202 201 199 199 203 205 209 216 215 215 216 216 217 219 218 218 221 224
334 335 336 334 329 320 310 301 293 285 278 268 257 249 242 233 228 228 225 218 211 208 207 206 204 201 198 200 203 202 204 208 210 211 213 212 214 216 215 216 218 220
336 337 340 341 337 328 319 309 299 290 282 274 265 256 246 234 228 230 226 216 212 211 208 205 203 200 200 202 201 199 201 204 207 209 209 210 212 212 211 212 215 218
341 340 342 344 341 334 327 317 304 294 286 282 277 268 253 238 232 234 227 215 211 211 208 206 203 200 201 202 200 200 201 204 207 209 209 210 210 209 210 210 213 218
345 344 343 344 341 337 333 324 310 298 290 287 281 272 261 249 239 234 226 216 212 208 205 206 205 200 199 198 197 198 200 203 207 208 210 211 210 209 209 211 213 217
350 346 344 344 342 339 336 331 320 306 297 294 287 271 261 258 250 239 229 219 212 206 204 207 204 199 196 195 193 194 198 202 203 205 207 210 211 210 209 211 215 216
353 349 346 345 344 342 339 334 330 319 306 303 301 281 262 263 261 248 236 227 217 209 205 205 202 196 194 193 192 194 198 199 199 200 204 207 209 210 208 209 213 215
357 353 350 348 347 348 348 345 342 334 319 314 319 310 288 284 282 264 247 240 233 223 212 206 204 200 195 193 190 192 196 198 199 198 201 207 209 209 208 206 208 212
0 357 355 352 351 353 356 359 360 354 337 330 337 339 336 328 319 306 282 262 251 244 230 217 210 202 194 191 188 191 197 200 202 201 200 206 209 209 209 207 205 208
4 2 0 359 357 356 356 360 7 10 4 358 1 5 2 351 335 323 308 289 264 246 236 223 213 203 196 193 187 189 199 201 200 201 201 204 206 208 210 208 207 207
7 6 6 5 3 1 360 359 3 10 14 14 16 24 27 12 352 336 321 308 295 276 257 241 222 205 201 201 196 194 200 202 201 202 202 203 204 207 209 208 208 207
10 10 10 10 9 7 6 3 1 5 11 15 18 20 24 20 4 352 329 317 321 312 291 281 268 223 209 212 211 207 204 204 207 205 203 207 207 208 210 208 206 205
12 13 13 13 13 11 10 9 7 6 7 9 13 15 17 19 15 8 347 323 329 335 332 331 321 292 261 233 222 221 214 210 217 216 209 212 212 209 210 206 202 203
14 15 15 15 16 14 13 13 12 10 8 7 9 11 13 15 15 12 5 349 338 344 2 359 316 280 268 245 228 229 225 219 225 230 221 219 218 212 209 203 199 201
16 16 16 16 16 16 16 15 14 13 11 10 11 12 13 13 12 10 5 0 356 353 9 9 324 279 266 252 237 233 232 228 231 238 233 227 224 216 209 204 201 201
18 17 16 16 15 16 17 16 16 15 14 14 13 14 15 14 13 12 7 4 2 358 357 352 328 299 276 263 248 239 238 235 236 242 240 231 228 220 209 204 202 202
18 18 17 16 16 17 16 15 16 16 16 17 16 16 16 15 14 15 13 12 10 6 4 354 337 324 308 284 260 246 241 237 241 247 243 232 228 222 209 201 195 195
18 17 16 16 16 17 16 15 15 16 17 19 20 20 20 18 17 17 17 17 14 11 11 8 354 341 328 308 284 252 228 225 246 252 236 216 209 206 202 200 195 191
19 17 16 15 16 17 17 17 16 15 16 19 22 24 23 23 23 21 20 20 17 15 16 15 11 1 346 329 310 275 230 222 257 261 230 200 185 179 174 180 194 194
22 21 20 18 18 18 17 18 17 15 15 17 20 23 24 24 25 24 22 22 21 21 22 19 17 13 4 352 333 305 274 259 273 270 220 184 174 172 158 145 173 193